Aéroport int. de Victoria, Colombie-Britannique

Conditions des dernières 24 heures

Date / Heure
(HAP)
Conditions Temp
(°F)
Humidité
(%)
Point de rosée
(°F)
Vent
(mph)
Pression (pouces) Visibilité
(miles)
25 octobre 2014
0:00 Pluie faible 50 89 47 NNE 9 29.8 15
24 octobre 2014
23:00 Pluie faible 50 88 46 ONO 2 29.8 20
22:00 Généralement nuageux 50 88 46 NO 6 29.9 30
21:00 Généralement nuageux 50 88 46 ONO 6 29.9 30
20:00 Généralement nuageux 51 87 47 O 7 29.9 30
19:00 Généralement nuageux 50 88 47 ONO 7 29.9 30
18:00 Généralement nuageux 51 86 47 ONO 7 29.9 30
17:00 Généralement nuageux 53   81 47 NO 5 29.9 30
16:00 Généralement nuageux 53   79 47 NNO 5 30.0 30
15:00 Généralement nuageux 53   78 46 N 7 30.0 30
14:00 Généralement nuageux 53   78 46 N 9 30.0 30
13:00 Généralement nuageux 52 80 46 NE 6 30.0 30
12:00 Généralement nuageux 52 81 46 NE 10 30.1 30
11:00 Généralement nuageux 50 90 47 O 4 30.1 30
10:00 Généralement nuageux 49 91 47 ONO 4 30.1 30
9:00 Généralement nuageux 48 92 45 SO 5 30.1 30
8:00 Généralement nuageux 46   92 44 OSO 4 30.1 30
7:00 Généralement nuageux 48 89 44 ONO 4 30.0 20
6:00 Généralement nuageux 48 88 44 OSO 5 30.0 30
5:00 Généralement nuageux 48 86 44 O 7 30.0 30
4:00 Généralement nuageux 48 87 45 ONO 4 30.0 20
3:00 Généralement nuageux 48 95 47 OSO 5 30.0 20
2:00 Généralement nuageux 48 96 47 SO 4 30.0 20
1:00 Généralement nuageux 48 95 47 N 2 30.0 20
0:00 Généralement nuageux 47 94 46 SSO 3 30.0 30
N.D. non disponible
↑ température la plus haute
↓ température la plus basse

Si vous désirez plus de données historiques sur les conditions météo, s.v.p. visitez Données climatologiques en ligne.

Date de modification :